User: anonymous   Login
Location: Unspecified
(0.0000°N, 0.0000°E)
Time: 10:50:15
(UTC+00:00)
Language:

NOSS 8 (A) - Orbit

View from above orbital plane
View from above orbital plane
View from above satellite
View from above satellite

Ground track
Ground track

The orbit data is extracted from the following two-line orbital elements,

1 17997U 87043A   19349.72090283 0.00001200  00000-0  99590-4 0    04
2 17997  63.3024 205.7752 0923865  62.5459 297.4541 13.49034085    04
Epoch (UTC): 15 December 2019 17:18:06
Eccentricity: 0.0923865
inclination: 63.3024°
perigee height: 387 km
apogee height: 1764 km
right ascension of ascending node: 205.7752°
argument of perigee: 62.5459°
revolutions per day: 13.49034085
mean anomaly at epoch: 297.4541°
orbit number at epoch: 0

The dashed part of the orbit path shows where the satellite is in the earth's shadow,  

DLR